[[{"header":{"parameterUnit":"m.s-1","parameterCategory":2,"la1":30.2991,"la2":30.254,"lo1":-89.0895,"lo2":-89.0444,"dy":0.0017,"dx":0.0017,"nx":28,"ny":28,"refTime":"2025-08-03T03:00:00:Z","depth":"0","parameterNumber":2,"parameterNumberName":"U-component_of_CURRENTS"},"data":[0,0,0,0,0,0,0,0,0,0,0,0,0,0,0,0,0,0,0,0,0,0,0,0,0,0,0,0,0,0,0,0,0,0,0,0,0,0,0,0,0,0,0,0,0,0,0,0,0,0,0,0,0,0,0,0,0,0,0.2481,0.2481,0,0.2455,0.2454,0.2454,0.2459,0.246,0.246,0.2461,0.2514,0.2515,0.2516,0,0,0,0,0,0,0,0,0,0,0,0,0,0.2578,0.2576,0.2481,0.2481,0.2481,0.2455,0.2454,0.2454,0.2459,0.246,0.246,0.2461,0.2514,0.2515,0.2516,0,0,0,0,0,0,0,0,0,0,0,0,0,0.2541,0.2575,0.2481,0.2481,0.2481,0.2455,0.2454,0.2454,0.2459,0.246,0.2461,0.2461,0.2514,0.2515,0.2516,0.2506,0,0,0.252,0.2521,0,0,0,0,0,0,0,0,0.2543,0.2537,0.2481,0.2481,0.2481,0.2462,0.2508,0.2476,0.2459,0.2466,0.2461,0.2462,0.2505,0.2507,0.2497,0.2509,0.2511,0.252,0.2521,0.2522,0.2522,0,0,0,0,0,0,0,0.2545,0.2538,0.2469,0.2481,0.2481,0.2497,0.2492,0.2502,0.2481,0.2465,0.2466,0.2465,0.2505,0.2495,0.2498,0.2512,0.252,0.2521,0.2522,0.2523,0.2578,0.2579,0,0,0,0,0,0,0.2547,0.254,0.247,0.2469,0.2516,0.2494,0.2489,0.2466,0.2479,0.2482,0.2464,0.2465,0.2493,0.2497,0.25,0.2515,0.2522,0.2523,0.2524,0.2577,0.2578,0.2579,0,0,0,0,0,0,0.2549,0.254,0.2471,0.2507,0.2499,0.2491,0.2466,0.2465,0.2457,0.2477,0.2482,0.2458,0.2493,0.2498,0.2509,0.2516,0.2523,0.2525,0.2576,0.2578,0.2578,0.2528,0,0,0,0,0,0,0.2552,0.2541,0.2524,0.2506,0.2497,0.2451,0.2466,0.2464,0.2456,0.2457,0.2473,0.2479,0.2495,0.2507,0.2511,0.2518,0.2526,0.2576,0.2577,0.2578,0.2529,0.2527,0.2526,0,0,0,0,0,0.2555,0.2527,0.2522,0.2515,0.2474,0.245,0.2447,0.2445,0.2455,0.2443,0.246,0.2478,0.2519,0.2508,0.2512,0.252,0.2575,0.2577,0.2578,0.253,0.2528,0.2526,0,0,0,0,0,0,0.2579,0.2524,0.2519,0.2481,0.2466,0.2452,0.2439,0.2441,0.2442,0.2447,0.2472,0.2478,0.2497,0.2515,0.2502,0.2544,0.2556,0.2559,0.2518,0.2517,0.2515,0.2506,0.2527,0,0,0,0,0,0.2571,0.2522,0.2498,0.247,0.2457,0.2448,0.2439,0.2437,0.2437,0.2437,0.2449,0.2475,0.2504,0.2514,0.2537,0.2545,0.2575,0.2561,0.2559,0.2557,0.2555,0.2613,0.2615,0.2584,0.2584,0.2584,0,0,0.2577,0.2539,0.2516,0.247,0.2455,0.2429,0.2444,0.2424,0.2413,0.2444,0.2434,0.2465,0.2507,0.2522,0.2533,0.2537,0.2581,0.2559,0.2557,0.2556,0.2614,0.2617,0.262,0.2585,0.2585,0.2585,0,0,0.2556,0.2525,0.2475,0.2454,0.2422,0.2415,0.2409,0.239,0.2392,0.2385,0.2421,0.2451,0.2473,0.2508,0.2531,0.2536,0.2572,0.2552,0.253,0.2586,0.2588,0.2591,0.2619,0.2624,0.2549,0.2549,0.2549,0,0.2575,0.2497,0.2467,0.2421,0.2405,0.2407,0.2375,0.2373,0.2365,0.2373,0.2379,0.2438,0.2469,0.2512,0.2516,0.2531,0.256,0.2528,0.2582,0.2586,0.2589,0.2617,0.2624,0.2547,0.2547,0.2547,0.2547,0,0.251,0.2459,0.2433,0.2367,0.2351,0.2323,0.2317,0.2312,0.232,0.2328,0.2363,0.2403,0.2443,0.2465,0.2489,0.2538,0.2548,0.2572,0.258,0.2589,0.2618,0.2626,0.2543,0.2544,0.2545,0.2545,0,0,0.2536,0.2409,0.2404,0.236,0.2319,0.2299,0.2289,0.2282,0.2286,0.2299,0.2313,0.2371,0.2402,0.2432,0.2476,0.2522,0.2568,0.2552,0.2556,0.2566,0.2672,0.2646,0.2653,0.2603,0.2604,0.2605,0.2676,0,0.2503,0.2392,0.2351,0.2284,0.2233,0.2236,0.2227,0.2231,0.2247,0.226,0.2323,0.2353,0.2388,0.2414,0.2464,0.2547,0.2589,0.2545,0.2673,0.2677,0.2643,0.2662,0.2586,0.264,0.2684,0.2685,0.2686,0,0.2458,0.2384,0.2293,0.2221,0.2206,0.2183,0.2177,0.2171,0.2205,0.2221,0.2267,0.2312,0.2381,0.2411,0.2542,0.2513,0.2586,0.2646,0.2651,0.2651,0.2666,0.2644,0.2653,0.2486,0.2699,0.2698,0.2697,0,0.2461,0.2355,0.2275,0.2247,0.2171,0.2159,0.2147,0.2164,0.2163,0.2204,0.2214,0.2297,0.2342,0.2447,0.2559,0.2559,0.2699,0.2719,0.2763,0.2761,0.2733,0.2726,0.2587,0.2817,0.2816,0.2816,0.2816,0,0.2429,0.2372,0.2267,0.2221,0.2163,0.2138,0.2112,0.2117,0.2135,0.2136,0.2197,0.2224,0.2357,0.2446,0.2551,0.2672,0.2697,0.276,0.2783,0.2712,0.2702,0.2587,0.2488,0.2819,0.2818,0.2818,0.2817,0,0.2426,0.2354,0.2258,0.2169,0.2147,0.2112,0.2071,0.2059,0.2084,0.2091,0.2103,0.2181,0.2292,0.2417,0.2586,0.2655,0.2687,0.2818,0.2706,0.2715,0.2587,0.2489,0.2384,0.2367,0.2872,0.2872,0.2871,0,0.2398,0.2338,0.222,0.2165,0.2118,0.2065,0.2032,0.2034,0.2024,0.2066,0.2069,0.2167,0.2233,0.2443,0.2597,0.276,0.2664,0.2765,0.2757,0.2558,0.2468,0.2383,0.2371,0.2698,0.2696,0.2695,0.2694,0,0.2342,0.23,0.2215,0.211,0.2049,0.1993,0.1953,0.1942,0.1956,0.197,0.2008,0.2067,0.2256,0.2369,0.2564,0.2677,0.2578,0.2743,0.2579,0.2344,0.2204,0.2206,0.2648,0.2683,0.2684,0.2685,0.2686,0.2686,0.23,0.2232,0.212,0.2029,0.1965,0.192,0.1882,0.1866,0.1857,0.1866,0.1943,0.2007,0.2137,0.2406,0.2488,0.25,0.2525,0.2446,0.2354,0.2295,0.2228,0.2626,0.2662,0.2663,0.2663,0.2664,0.2665,0,0.2217,0.2137,0.2044,0.1924,0.1854,0.1854,0.1815,0.1789,0.1772,0.181,0.1842,0.193,0.2009,0.2123,0.2177,0.2092,0.2121,0.2006,0.1842,0.187,0.2258,0.2197,0.2082,0.2082,0.2083,0.2083,0.2083,0.2083,0.2159,0.2039,0.1988,0.1837,0.1776,0.1707,0.1694,0.1678,0.1697,0.1688,0.1709,0.1755,0.1761,0.1642,0.1561,0.1596,0.1464,0.1407,0.1415,0.1607,0.164,0.1671,0.159,0.135,0.1349,0.1048,0.1044,0.1041]},{"header":{"parameterUnit":"m.s-1","parameterCategory":2,"la1":30.2991,"la2":30.254,"lo1":-89.0895,"lo2":-89.0444,"dy":0.0017,"dx":0.0017,"nx":28,"ny":28,"refTime":"2025-08-03T03:00:00:Z","depth":"0","parameterNumber":3,"parameterNumberName":"V-component_of_CURRENTS"},"data":[0,0,0,0,0,0,0,0,0,0,0,0,0,0,0,0,0,0,0,0,0,0,0,0,0,0,0,0,0,0,0,0,0,0,0,0,0,0,0,0,0,0,0,0,0,0,0,0,0,0,0,0,0,0,0,0,0,0,-0.0155,-0.0154,0,-0.0094,-0.0093,-0.0092,-0.0067,-0.0067,-0.0067,-0.0068,0.001,0.0012,0.0014,0,0,0,0,0,0,0,0,0,0,0,0,0,-0.0207,-0.0207,-0.0155,-0.0154,-0.0153,-0.0094,-0.0093,-0.0092,-0.0067,-0.0067,-0.0068,-0.0068,0.0009,0.0012,0.0015,0,0,0,0,0,0,0,0,0,0,0,0,0,-0.0168,-0.0206,-0.0155,-0.0135,-0.0133,-0.0094,-0.0093,-0.0092,-0.0067,-0.0067,-0.0068,-0.0068,0.0008,0.0012,0.0015,0.0046,0,0,0.0026,0.0027,0,0,0,0,0,0,0,0,-0.017,-0.0166,-0.0139,-0.0136,-0.0134,-0.009,-0.0083,-0.0046,-0.0067,-0.009,-0.0068,-0.0068,-0.0023,-0.0017,-0.0002,0.0049,0.0053,0.0026,0.0028,0.003,0.0031,0,0,0,0,0,0,0,-0.0173,-0.0168,-0.0129,-0.0138,-0.0135,-0.0115,-0.011,-0.0076,-0.0053,-0.0088,-0.0086,-0.0082,-0.0021,-0.0005,-0.0,0.0054,0.0026,0.0029,0.0031,0.0033,0.0168,0.0169,0,0,0,0,0,0,-0.0186,-0.0171,-0.0131,-0.0127,-0.0156,-0.0114,-0.0109,-0.0102,-0.0054,-0.0047,-0.0082,-0.0082,-0.0011,-0.0004,0.0003,0.0066,0.003,0.0033,0.0035,0.0166,0.0168,0.017,0,0,0,0,0,0,-0.0187,-0.0183,-0.0133,-0.0149,-0.0142,-0.0113,-0.0106,-0.0101,-0.0086,-0.005,-0.0043,-0.0074,-0.0011,-0.0002,0.0044,0.0068,0.0035,0.0038,0.0165,0.0167,0.0169,0.0176,0,0,0,0,0,0,-0.0189,-0.0183,-0.018,-0.015,-0.0141,-0.0108,-0.0106,-0.0099,-0.0084,-0.0083,-0.004,-0.0033,-0.0011,0.0039,0.0048,0.0072,0.004,0.0163,0.0166,0.0168,0.0174,0.0179,0.0182,0,0,0,0,0,-0.0191,-0.0185,-0.018,-0.0175,-0.0139,-0.0107,-0.01,-0.0081,-0.0084,-0.0071,-0.0038,-0.0035,0.0063,0.0043,0.0053,0.0079,0.0161,0.0165,0.0168,0.0173,0.0178,0.0182,0,0,0,0,0,0,-0.0211,-0.0182,-0.0175,-0.0163,-0.0137,-0.0104,-0.0093,-0.0082,-0.0047,-0.0046,-0.0016,-0.0005,0.0045,0.0063,0.004,0.0128,0.0113,0.0119,0.0113,0.0119,0.0122,0.0117,0.0043,0,0,0,0,0,-0.0214,-0.02,-0.0171,-0.0161,-0.0149,-0.0122,-0.0108,-0.0093,-0.0061,-0.0047,-0.0016,0.0023,0.0069,0.0092,0.0131,0.0177,0.0171,0.0202,0.0206,0.0209,0.0213,0.0216,0.022,0.0181,0.0181,0.0181,0,0,-0.0222,-0.0203,-0.0197,-0.0164,-0.0144,-0.0113,-0.0114,-0.0092,-0.0059,-0.0043,0.0009,0.0038,0.0084,0.014,0.0164,0.0156,0.0217,0.0213,0.0215,0.0218,0.022,0.0223,0.0226,0.0183,0.0183,0.0182,0,0,-0.0223,-0.0212,-0.0195,-0.0169,-0.0137,-0.0113,-0.0108,-0.0071,-0.0048,0.0002,0.0026,0.0067,0.0132,0.0173,0.0201,0.0252,0.0237,0.0264,0.0282,0.0285,0.0287,0.0289,0.0279,0.028,0.0266,0.0267,0.0267,0,-0.0236,-0.0203,-0.0186,-0.0157,-0.0132,-0.0113,-0.0081,-0.005,-0.0001,0.0025,0.002,0.0119,0.0152,0.0225,0.0245,0.026,0.025,0.0256,0.0287,0.0289,0.0291,0.028,0.0281,0.0267,0.0267,0.0267,0.0267,0,-0.0214,-0.0185,-0.0174,-0.0125,-0.0097,-0.0069,-0.0025,0.0006,0.0029,0.006,0.0125,0.0167,0.0222,0.0243,0.0263,0.0307,0.029,0.0287,0.0266,0.0295,0.0282,0.0283,0.0268,0.0268,0.0268,0.0268,0,0,-0.0254,-0.0173,-0.0169,-0.0132,-0.0075,-0.0048,0.0006,0.0064,0.0099,0.014,0.0187,0.0261,0.0264,0.0297,0.0321,0.033,0.0334,0.0314,0.0313,0.0289,0.0325,0.0315,0.0314,0.0326,0.0327,0.0327,0.0306,0,-0.0241,-0.0175,-0.0137,-0.0073,-0.0033,0.0009,0.006,0.0112,0.0151,0.0199,0.0238,0.0288,0.0292,0.0312,0.0324,0.034,0.0339,0.034,0.0314,0.0314,0.0289,0.0317,0.0381,0.0369,0.0307,0.0307,0.0307,0,-0.0229,-0.0181,-0.0114,-0.0029,-0.001,0.0028,0.0106,0.0154,0.0221,0.0247,0.029,0.0313,0.0358,0.0339,0.0361,0.0357,0.0341,0.0339,0.0337,0.0327,0.0306,0.0335,0.0373,0.0367,0.0309,0.0309,0.0309,0,-0.0249,-0.0165,-0.0107,-0.0078,0.0015,0.0049,0.0095,0.0165,0.0209,0.0269,0.0294,0.0341,0.0364,0.0358,0.0361,0.0355,0.0364,0.0352,0.0325,0.0324,0.0376,0.0378,0.0396,0.0348,0.0348,0.0348,0.0348,0,-0.024,-0.0196,-0.0113,-0.008,-0.0017,0.0043,0.0105,0.0155,0.022,0.0273,0.0308,0.0351,0.0366,0.038,0.0365,0.0354,0.0363,0.0334,0.0323,0.038,0.0383,0.0378,0.0348,0.0347,0.0348,0.0348,0.0348,0,-0.0258,-0.0205,-0.0137,-0.0047,-0.0021,0.0021,0.0107,0.0154,0.0207,0.0273,0.029,0.0357,0.0381,0.0386,0.0385,0.0362,0.0352,0.0335,0.0395,0.0393,0.0356,0.0324,0.0306,0.0325,0.0302,0.0301,0.0301,0,-0.0256,-0.0221,-0.0129,-0.0092,-0.005,0.0016,0.0065,0.0138,0.0186,0.0282,0.0313,0.0361,0.0415,0.0413,0.0398,0.0371,0.0351,0.0378,0.0382,0.0369,0.0326,0.0302,0.0319,0.0452,0.0453,0.0454,0.0454,0,-0.0249,-0.022,-0.0161,-0.0091,-0.0038,0.0027,0.0097,0.0131,0.022,0.0277,0.036,0.0412,0.0442,0.0477,0.044,0.0422,0.0393,0.0391,0.0379,0.0447,0.0423,0.0433,0.0433,0.0462,0.0461,0.046,0.046,0.046,-0.0252,-0.0209,-0.0135,-0.007,-0.0015,0.0048,0.0097,0.0167,0.0245,0.0354,0.0394,0.0504,0.0549,0.0534,0.049,0.0466,0.0423,0.046,0.0422,0.0397,0.0426,0.0427,0.044,0.044,0.0439,0.0438,0.0438,0,-0.0235,-0.0174,-0.0113,-0.0027,0.0025,0.0052,0.0135,0.0189,0.0279,0.0388,0.0475,0.062,0.0647,0.0639,0.0593,0.0524,0.052,0.049,0.0498,0.0513,0.0532,0.0551,0.0589,0.0589,0.0589,0.0589,0.0589,0.0589,-0.0218,-0.0141,-0.0096,-0.0,0.0047,0.0121,0.0167,0.0241,0.0331,0.0486,0.0614,0.0714,0.0771,0.0634,0.057,0.0552,0.0521,0.0494,0.0451,0.0487,0.0483,0.0478,0.0493,0.0518,0.0517,0.0503,0.0503,0.0502]}],[{"header":{"parameterUnit":"m.s-1","parameterCategory":2,"la1":30.2991,"la2":30.254,"lo1":-89.0895,"lo2":-89.0444,"dy":0.0017,"dx":0.0017,"nx":28,"ny":28,"refTime":"2025-08-03T03:00:00:Z","depth":"2","parameterNumber":2,"parameterNumberName":"U-component_of_CURRENTS"},"data":[0,0,0,0,0,0,0,0,0,0,0,0,0,0,0,0,0,0,0,0,0,0,0,0,0,0,0,0,0,0,0,0,0,0,0,0,0,0,0,0,0,0,0,0,0,0,0,0,0,0,0,0,0,0,0,0,0,0,0.104,0.1039,0,0.1016,0.1016,0.1015,0.1031,0.1032,0.1033,0.1034,0.1084,0.1084,0.1085,0,0,0,0,0,0,0,0,0,0,0,0,0,0.109,0.1089,0.104,0.1039,0.1039,0.1016,0.1016,0.1015,0.1031,0.1032,0.1033,0.1034,0.1083,0.1084,0.1085,0,0,0,0,0,0,0,0,0,0,0,0,0,0.1066,0.1089,0.104,0.1045,0.1045,0.1016,0.1015,0.1015,0.1031,0.1032,0.1033,0.1034,0.1083,0.1084,0.1085,0.1065,0,0,0.1087,0.1088,0,0,0,0,0,0,0,0,0.1068,0.1064,0.1045,0.1045,0.1045,0.1029,0.1052,0.1036,0.1031,0.1035,0.1034,0.1035,0.1072,0.1074,0.1064,0.1067,0.1069,0.1087,0.1088,0.1088,0.1088,0,0,0,0,0,0,0,0.1069,0.1065,0.1029,0.1044,0.1045,0.1046,0.1044,0.1048,0.1047,0.1035,0.1036,0.1035,0.1073,0.1063,0.1065,0.107,0.1087,0.1088,0.1089,0.1089,0.1152,0.1153,0,0,0,0,0,0,0.1073,0.1067,0.103,0.1028,0.1061,0.1044,0.1042,0.1032,0.1046,0.1049,0.1034,0.1036,0.1061,0.1064,0.1067,0.1124,0.1088,0.1089,0.1089,0.115,0.1152,0.1153,0,0,0,0,0,0,0.1074,0.107,0.1031,0.1049,0.1044,0.1042,0.1031,0.1031,0.1047,0.1044,0.1049,0.1053,0.1062,0.1066,0.1097,0.1123,0.1089,0.109,0.1149,0.1151,0.1152,0.1186,0,0,0,0,0,0,0.1075,0.107,0.1076,0.1049,0.1043,0.1026,0.103,0.1029,0.1043,0.1046,0.1062,0.1066,0.1063,0.1095,0.1097,0.1124,0.1091,0.1148,0.115,0.1152,0.1184,0.1189,0.1193,0,0,0,0,0,0.1077,0.1073,0.1076,0.1072,0.1047,0.1027,0.1024,0.1026,0.1043,0.1047,0.1067,0.1067,0.1111,0.1097,0.1099,0.1126,0.1146,0.1149,0.1152,0.1181,0.1188,0.1193,0,0,0,0,0,0,0.1094,0.1073,0.1076,0.1065,0.1056,0.103,0.1035,0.104,0.1055,0.107,0.1076,0.1081,0.1118,0.1117,0.1101,0.1152,0.1131,0.1134,0.1153,0.1159,0.1164,0.1155,0.1091,0,0,0,0,0,0.11,0.1096,0.1075,0.107,0.1067,0.1058,0.1057,0.1057,0.1061,0.1069,0.1083,0.1104,0.1124,0.1139,0.115,0.1173,0.1187,0.1195,0.12,0.1204,0.1199,0.1243,0.1251,0.1162,0.1162,0.1162,0,0,0.1104,0.1094,0.1092,0.1075,0.1068,0.1058,0.1061,0.1061,0.1065,0.1073,0.1099,0.112,0.1134,0.1162,0.118,0.117,0.1241,0.1207,0.1211,0.1204,0.1246,0.1255,0.1263,0.1163,0.1163,0.1163,0,0,0.1101,0.1103,0.1096,0.1089,0.1085,0.1076,0.1083,0.1075,0.1089,0.1107,0.1124,0.1162,0.1182,0.12,0.1212,0.125,0.1264,0.1264,0.1282,0.1325,0.1333,0.1339,0.1385,0.1395,0.1267,0.1267,0.1268,0,0.111,0.1094,0.1092,0.1084,0.1082,0.1088,0.1081,0.1087,0.1095,0.1115,0.1123,0.1183,0.1197,0.1241,0.1256,0.1261,0.129,0.1258,0.1331,0.1338,0.1345,0.1389,0.14,0.1269,0.1269,0.1269,0.1269,0,0.1092,0.1091,0.1087,0.1078,0.1078,0.1073,0.1078,0.1097,0.1122,0.1133,0.1191,0.1215,0.1254,0.127,0.1273,0.1332,0.1341,0.1332,0.1315,0.1356,0.14,0.1411,0.1272,0.1271,0.1271,0.127,0,0,0.1078,0.1075,0.1076,0.1077,0.1077,0.1071,0.1093,0.1109,0.1138,0.117,0.1214,0.1257,0.129,0.1305,0.1329,0.1364,0.1439,0.1371,0.1372,0.1412,0.1547,0.1451,0.1453,0.145,0.1452,0.1453,0.1567,0,0.1066,0.1056,0.1057,0.1054,0.105,0.1068,0.1084,0.111,0.1145,0.1191,0.1243,0.1292,0.1298,0.1336,0.1374,0.1424,0.1467,0.141,0.1504,0.1507,0.1412,0.1462,0.1214,0.1285,0.1577,0.1579,0.158,0,0.1046,0.1044,0.1042,0.1051,0.1052,0.1058,0.1099,0.1114,0.1178,0.1213,0.1278,0.132,0.1395,0.1388,0.1498,0.1467,0.151,0.1541,0.1546,0.1445,0.1429,0.1288,0.1293,0.1598,0.1597,0.1596,0.1594,0,0.1039,0.1033,0.1038,0.1038,0.1049,0.1067,0.1081,0.1132,0.1157,0.1241,0.128,0.1368,0.1426,0.1493,0.1565,0.1545,0.1677,0.1656,0.1611,0.1606,0.1404,0.1377,0.1728,0.1728,0.1727,0.1727,0.1727,0,0.1023,0.1026,0.104,0.1041,0.1054,0.1068,0.1099,0.1131,0.1188,0.1226,0.1299,0.1355,0.1455,0.154,0.1592,0.164,0.1708,0.162,0.1627,0.141,0.1383,0.1653,0.1642,0.1731,0.173,0.173,0.1729,0,0.1017,0.1025,0.1029,0.1045,0.1052,0.1068,0.1096,0.1118,0.1177,0.1235,0.1267,0.1371,0.1481,0.1573,0.1691,0.1664,0.1724,0.1723,0.1463,0.1434,0.1619,0.161,0.1679,0.1676,0.1674,0.1672,0.1671,0,0.101,0.1015,0.1033,0.1037,0.1047,0.1067,0.1078,0.1118,0.1139,0.124,0.1266,0.1392,0.1451,0.158,0.1534,0.1586,0.1729,0.1423,0.1317,0.1614,0.1614,0.1608,0.1602,0.1084,0.1078,0.1073,0.1069,0,0.0995,0.1015,0.1022,0.1029,0.104,0.1041,0.1061,0.1072,0.1126,0.1173,0.1248,0.1303,0.1351,0.1274,0.1312,0.1308,0.1385,0.1319,0.1716,0.112,0.1058,0.1057,0.1069,0.1024,0.1029,0.1032,0.1034,0.1036,0.0991,0.0996,0.1009,0.1015,0.1017,0.101,0.1007,0.1025,0.1047,0.1082,0.1163,0.115,0.1079,0.098,0.1,0.0996,0.1076,0.1037,0.1051,0.1071,0.0967,0.0902,0.0821,0.0824,0.0827,0.083,0.0832,0,0.0971,0.0982,0.0985,0.098,0.0965,0.0986,0.0986,0.0966,0.0973,0.0958,0.0988,0.0768,0.0688,0.0729,0.0576,0.0556,0.0539,0.0618,0.0574,0.0613,0.0648,0.0525,0.0262,0.0262,0.0263,0.0263,0,0,0.096,0.0958,0.0959,0.0926,0.0929,0.0909,0.0909,0.0876,0.0832,0.0726,0.0639,0.0613,0.0576,0.038,0.0341,0.0313,0.0486,0.0294,0.0713,0.0692,0.073,0.0812,0.0653,0,0,0,0,0]},{"header":{"parameterUnit":"m.s-1","parameterCategory":2,"la1":30.2991,"la2":30.254,"lo1":-89.0895,"lo2":-89.0444,"dy":0.0017,"dx":0.0017,"nx":28,"ny":28,"refTime":"2025-08-03T03:00:00:Z","depth":"2","parameterNumber":3,"parameterNumberName":"V-component_of_CURRENTS"},"data":[0,0,0,0,0,0,0,0,0,0,0,0,0,0,0,0,0,0,0,0,0,0,0,0,0,0,0,0,0,0,0,0,0,0,0,0,0,0,0,0,0,0,0,0,0,0,0,0,0,0,0,0,0,0,0,0,0,0,-0.0192,-0.0192,0,-0.0178,-0.0178,-0.0178,-0.0192,-0.0193,-0.0194,-0.0194,-0.0236,-0.0237,-0.0237,0,0,0,0,0,0,0,0,0,0,0,0,0,-0.022,-0.0219,-0.0192,-0.0192,-0.0192,-0.0178,-0.0178,-0.0177,-0.0192,-0.0193,-0.0194,-0.0194,-0.0236,-0.0237,-0.0237,0,0,0,0,0,0,0,0,0,0,0,0,0,-0.0206,-0.0219,-0.0192,-0.0198,-0.0199,-0.0178,-0.0178,-0.0177,-0.0192,-0.0193,-0.0194,-0.0195,-0.0236,-0.0237,-0.0237,-0.0223,0,0,-0.024,-0.024,0,0,0,0,0,0,0,0,-0.0207,-0.0205,-0.0198,-0.0198,-0.0198,-0.0189,-0.0203,-0.0196,-0.0192,-0.0194,-0.0194,-0.0195,-0.0225,-0.0227,-0.022,-0.0225,-0.0226,-0.024,-0.024,-0.0241,-0.0241,0,0,0,0,0,0,0,-0.0208,-0.0206,-0.0186,-0.0197,-0.0198,-0.0197,-0.0197,-0.0201,-0.0205,-0.0194,-0.0195,-0.0194,-0.0226,-0.0219,-0.0221,-0.0227,-0.024,-0.024,-0.0241,-0.0241,-0.0241,-0.0241,0,0,0,0,0,0,-0.0211,-0.0206,-0.0186,-0.0186,-0.0206,-0.0196,-0.0195,-0.019,-0.0203,-0.0206,-0.0193,-0.0195,-0.0217,-0.022,-0.0223,-0.0208,-0.0241,-0.0241,-0.0242,-0.0242,-0.0241,-0.024,0,0,0,0,0,0,-0.0211,-0.0209,-0.0187,-0.0197,-0.0194,-0.0195,-0.0189,-0.0189,-0.0191,-0.0203,-0.0207,-0.0196,-0.0218,-0.0222,-0.0225,-0.021,-0.0242,-0.0242,-0.0242,-0.0241,-0.0241,-0.0178,0,0,0,0,0,0,-0.0212,-0.0209,-0.0209,-0.0197,-0.0194,-0.0173,-0.0188,-0.0188,-0.0189,-0.0191,-0.0206,-0.021,-0.0219,-0.0224,-0.0226,-0.0212,-0.0243,-0.0243,-0.0242,-0.0241,-0.018,-0.0175,-0.017,0,0,0,0,0,-0.0213,-0.0207,-0.0209,-0.0207,-0.0192,-0.0172,-0.017,-0.0174,-0.0189,-0.0181,-0.0192,-0.021,-0.022,-0.0223,-0.0226,-0.0212,-0.0243,-0.0242,-0.0241,-0.0183,-0.0176,-0.017,0,0,0,0,0,0,-0.0222,-0.0207,-0.0209,-0.0201,-0.0188,-0.0175,-0.0173,-0.0175,-0.0176,-0.0184,-0.02,-0.0204,-0.0201,-0.0218,-0.0221,-0.0211,-0.0236,-0.0236,-0.0191,-0.0185,-0.018,-0.0171,-0.0244,0,0,0,0,0,-0.0222,-0.0213,-0.0199,-0.0192,-0.0187,-0.0181,-0.0176,-0.0175,-0.0173,-0.0175,-0.0182,-0.0194,-0.0196,-0.02,-0.0205,-0.0198,-0.0214,-0.0194,-0.0188,-0.0184,-0.0179,-0.0199,-0.0195,-0.0237,-0.0237,-0.0237,0,0,-0.0225,-0.0216,-0.0212,-0.0194,-0.0187,-0.0163,-0.018,-0.017,-0.0149,-0.018,-0.0162,-0.0176,-0.0191,-0.0178,-0.018,-0.0192,-0.0177,-0.0183,-0.0178,-0.0176,-0.0198,-0.0194,-0.019,-0.0236,-0.0236,-0.0237,0,0,-0.0215,-0.0216,-0.0201,-0.0185,-0.0171,-0.0159,-0.0157,-0.0142,-0.0137,-0.012,-0.0137,-0.0142,-0.0144,-0.0146,-0.0149,-0.0122,-0.0149,-0.0128,-0.0094,-0.0113,-0.0109,-0.0107,-0.0103,-0.01,-0.0126,-0.0126,-0.0126,0,-0.0218,-0.0195,-0.0193,-0.017,-0.0154,-0.0156,-0.0128,-0.0115,-0.0102,-0.0094,-0.011,-0.0111,-0.0126,-0.011,-0.0098,-0.0109,-0.012,-0.0112,-0.0105,-0.0103,-0.0101,-0.0099,-0.0097,-0.0123,-0.0123,-0.0123,-0.0124,0,-0.0188,-0.0171,-0.0161,-0.0128,-0.011,-0.0089,-0.0068,-0.0051,-0.0051,-0.0042,-0.0031,-0.0048,-0.0052,-0.0055,-0.0066,-0.0056,-0.0066,-0.0095,-0.0118,-0.0093,-0.0092,-0.0091,-0.0118,-0.0119,-0.012,-0.0121,0,0,-0.0182,-0.0146,-0.0142,-0.0118,-0.0086,-0.0064,-0.0028,0.0007,0.0029,0.0029,0.0053,0.0047,0.0025,0.0019,-0.0001,-0.0014,-0.0004,-0.0044,-0.0047,-0.0035,-0.0029,0.0019,0.0024,-0.0035,-0.0035,-0.0035,-0.0025,0,-0.0155,-0.0111,-0.0095,-0.0043,-0.0014,0.0003,0.004,0.0067,0.008,0.0102,0.0082,0.0091,0.0057,0.0053,0.0037,0.0006,-0.0002,-0.0003,-0.006,-0.0061,-0.0017,0.0026,-0.0005,0.0006,-0.0025,-0.0024,-0.0024,0,-0.0119,-0.0094,-0.0048,0.0007,0.0022,0.0051,0.0105,0.0138,0.0165,0.0171,0.0168,0.0151,0.0146,0.0101,0.0064,0.0065,0.0025,-0.0004,-0.0005,0.0017,-0.0012,-0.0029,0.0008,-0.0023,-0.0024,-0.0024,-0.0024,0,-0.0104,-0.0052,-0.0016,0.0002,0.0057,0.0082,0.0113,0.0152,0.0185,0.0207,0.0223,0.0206,0.02,0.0148,0.0101,0.0077,0.006,0.0012,0.0021,0.0024,-0.0023,-0.0024,-0.002,-0.002,-0.002,-0.002,-0.0021,0,-0.0068,-0.0033,-0.0011,0.0013,0.0063,0.0095,0.0148,0.0179,0.0218,0.0261,0.0249,0.028,0.0207,0.0193,0.013,0.0102,0.0081,0.0046,0.0034,0.0001,0.0003,-0.005,-0.0054,-0.002,-0.002,-0.002,-0.002,0,-0.004,-0.0029,0.0015,0.0057,0.0071,0.0106,0.0168,0.0209,0.0242,0.0297,0.0306,0.0333,0.0332,0.0274,0.0208,0.0155,0.011,0.0098,0.0086,0.0074,0.0077,0.0076,0.0107,0.0109,0.011,0.0112,0.0113,0,-0.0009,0.0008,0.0035,0.0054,0.0073,0.0121,0.016,0.0211,0.0256,0.0339,0.0371,0.0399,0.0452,0.0404,0.0304,0.0231,0.0181,0.0143,0.009,0.0107,0.0091,0.0088,0.0086,0.005,0.005,0.005,0.0051,0,0.0048,0.0035,0.0059,0.0079,0.0112,0.0164,0.0221,0.0262,0.0332,0.0394,0.0495,0.0553,0.0533,0.0461,0.0367,0.031,0.0155,0.0152,0.0159,0.0038,0.0058,0.0041,0.0039,0.0054,0.0054,0.0054,0.0053,0.0053,0.0082,0.0096,0.0098,0.0124,0.0154,0.021,0.0257,0.033,0.0421,0.0539,0.0594,0.0657,0.0525,0.0419,0.0339,0.0239,0.0239,0.0142,0.0137,0.0133,0.0141,0.0164,0.0183,0.0183,0.0183,0.0184,0.0184,0,0.0133,0.0131,0.0152,0.0178,0.0209,0.0215,0.0302,0.0365,0.0475,0.0584,0.0701,0.0582,0.0522,0.0393,0.0241,0.0172,0.0149,0.0145,0.0078,0.0075,0.0073,0.0074,0.01,0.0099,0.0099,0.0099,0,0,0.0166,0.0181,0.0182,0.0226,0.0235,0.0284,0.033,0.0431,0.0511,0.0635,0.065,0.0703,0.0503,0.0342,0.0236,0.0163,0.0155,0.0174,0.0246,0.0177,0.0176,0.0071,0.0072,0,0,0,0,0]}],[{"header":{"parameterUnit":"m.s-1","parameterCategory":2,"la1":30.2991,"la2":30.254,"lo1":-89.0895,"lo2":-89.0444,"dy":0.0017,"dx":0.0017,"nx":28,"ny":28,"refTime":"2025-08-03T03:00:00:Z","depth":"4","parameterNumber":2,"parameterNumberName":"U-component_of_CURRENTS"},"data":[0,0,0,0,0,0,0,0,0,0,0,0,0,0,0,0,0,0,0,0,0,0,0,0,0,0,0,0,0,0,0,0,0,0,0,0,0,0,0,0,0,0,0,0,0,0,0,0,0,0,0,0,0,0,0,0,0,0,-0.0335,-0.0335,0,-0.0308,-0.0308,-0.0308,-0.0271,-0.0271,-0.027,-0.027,-0.0214,-0.0213,-0.0212,0,0,0,0,0,0,0,0,0,0,0,0,0,-0.0353,-0.0352,-0.0335,-0.0335,-0.0335,-0.0308,-0.0308,-0.0308,-0.0272,-0.0271,-0.027,-0.027,-0.0214,-0.0213,-0.0212,0,0,0,0,0,0,0,0,0,0,0,0,0,-0.0337,-0.0352,-0.0335,-0.0314,-0.0311,-0.0308,-0.0308,-0.0307,-0.0272,-0.0271,-0.027,-0.0269,-0.0215,-0.0213,-0.0212,-0.022,0,0,-0.0207,-0.0207,0,0,0,0,0,0,0,0,-0.0338,-0.0336,-0.0317,-0.0315,-0.0313,-0.0293,-0.0294,-0.0277,-0.0272,-0.0287,-0.027,-0.0269,-0.0238,-0.0235,-0.0232,-0.0218,-0.0215,-0.0207,-0.0206,-0.0206,-0.0205,0,0,0,0,0,0,0,-0.0339,-0.0337,-0.0324,-0.0317,-0.0314,-0.0304,-0.0301,-0.029,-0.0267,-0.0285,-0.0283,-0.028,-0.0237,-0.0233,-0.023,-0.0215,-0.0207,-0.0206,-0.0205,-0.0205,-0.0116,-0.0115,0,0,0,0,0,0,-0.0344,-0.0339,-0.0325,-0.0323,-0.0324,-0.0305,-0.0301,-0.03,-0.0268,-0.0262,-0.0281,-0.0279,-0.0236,-0.0232,-0.0228,-0.012,-0.0206,-0.0205,-0.0204,-0.0118,-0.0116,-0.0114,0,0,0,0,0,0,-0.0345,-0.0343,-0.0326,-0.033,-0.0328,-0.0305,-0.0304,-0.03,-0.0259,-0.0265,-0.0258,-0.0241,-0.0235,-0.023,-0.0176,-0.0122,-0.0204,-0.0203,-0.0119,-0.0117,-0.0115,0.002,0,0,0,0,0,0,-0.0345,-0.0344,-0.0347,-0.0331,-0.0328,-0.0302,-0.0305,-0.03,-0.0261,-0.0257,-0.0229,-0.0225,-0.0234,-0.0177,-0.0174,-0.0122,-0.0201,-0.0121,-0.0118,-0.0116,0.0014,0.0027,0.0038,0,0,0,0,0,-0.0346,-0.0347,-0.0347,-0.0345,-0.0332,-0.0301,-0.0297,-0.0279,-0.026,-0.0239,-0.0207,-0.0224,-0.0158,-0.0174,-0.0171,-0.0117,-0.0123,-0.0119,-0.0116,0.0009,0.0024,0.0038,0,0,0,0,0,0,-0.0356,-0.0343,-0.0342,-0.034,-0.0314,-0.0294,-0.0281,-0.0256,-0.0216,-0.0191,-0.0197,-0.0191,-0.0127,-0.0146,-0.0164,-0.0088,-0.0147,-0.0142,-0.0053,-0.0038,-0.0027,-0.003,-0.02,0,0,0,0,0,-0.0362,-0.0361,-0.0337,-0.0336,-0.0319,-0.0291,-0.0276,-0.0241,-0.0207,-0.0186,-0.0149,-0.0127,-0.0119,-0.0095,-0.0085,-0.0035,-0.0104,-0.0004,0.0008,0.0018,0.0016,-0.0042,-0.0036,-0.0103,-0.0103,-0.0103,0,0,-0.0368,-0.0362,-0.0361,-0.0338,-0.0319,-0.0267,-0.0278,-0.0223,-0.0163,-0.0187,-0.008,-0.0076,-0.0098,-0.0041,-0.0015,-0.0041,0.0,0.0023,0.0032,0.0023,-0.0038,-0.0032,-0.0026,-0.0101,-0.0101,-0.0102,0,0,-0.0363,-0.0366,-0.0349,-0.0313,-0.0263,-0.0235,-0.0206,-0.0135,-0.0092,0.0001,-0.0011,0.0022,0.0078,0.0062,0.0054,0.0132,0.0063,0.015,0.022,0.0165,0.0169,0.0173,0.0088,0.0082,0.016,0.0161,0.0161,0,-0.0366,-0.0335,-0.0338,-0.0292,-0.0246,-0.0209,-0.0138,-0.0098,-0.0004,0.0027,0.0059,0.0112,0.0115,0.0121,0.0168,0.016,0.0111,0.0173,0.018,0.0182,0.0183,0.0095,0.0087,0.0168,0.0167,0.0166,0.0165,0,-0.0335,-0.029,-0.0269,-0.0199,-0.0156,-0.0083,-0.0018,0.0053,0.0127,0.0162,0.0227,0.0234,0.0254,0.0267,0.0258,0.0269,0.0225,0.0199,0.0144,0.0198,0.0102,0.0091,0.0178,0.0175,0.0173,0.0171,0,0,-0.0357,-0.0265,-0.0245,-0.0187,-0.008,-0.0035,0.0062,0.0141,0.0183,0.0284,0.0319,0.0373,0.0378,0.0366,0.0349,0.0322,0.0305,0.0294,0.0288,0.0212,0.017,0.0159,0.0145,0.0295,0.0294,0.0294,0.0097,0,-0.0311,-0.0216,-0.017,-0.004,0.0029,0.01,0.017,0.0245,0.03,0.0343,0.0345,0.038,0.0409,0.0428,0.0413,0.0315,0.0286,0.0359,0.0127,0.0119,0.0105,0.0136,0.0291,0.0089,0.0086,0.0084,0.0083,0,-0.0267,-0.0204,-0.0078,0.0045,0.008,0.017,0.0276,0.0341,0.0376,0.0413,0.0443,0.0435,0.0425,0.0438,0.0322,0.0375,0.0305,0.0227,0.0217,0.0151,0.009,0.0023,0.0062,0.0064,0.0066,0.0067,0.0068,0,-0.0272,-0.0128,-0.0025,0.0028,0.0163,0.0243,0.0315,0.0378,0.0402,0.045,0.0442,0.0446,0.0407,0.0356,0.0234,0.0295,0.0047,0.0092,0.0,-0.0005,0.0001,-0.0,0.0008,0.0008,0.0009,0.0009,0.001,0,-0.0231,-0.0148,-0.0005,0.0056,0.0178,0.0269,0.036,0.042,0.0447,0.0412,0.0478,0.0394,0.0391,0.0252,0.0195,0.0037,0.0011,0.0008,-0.0046,0.0062,0.0069,-0.0008,-0.0007,0.0002,0.0003,0.0005,0.0006,0,-0.0255,-0.0161,-0.0041,0.0122,0.0184,0.0271,0.0384,0.0402,0.0449,0.0391,0.0404,0.0334,0.0196,0.0125,-0.0041,-0.0054,-0.0186,-0.0246,-0.018,-0.0228,-0.0179,-0.0169,-0.0301,-0.0302,-0.0304,-0.0305,-0.0306,0,-0.0252,-0.0196,-0.0017,0.0054,0.0147,0.0274,0.0327,0.0413,0.0382,0.0295,0.0213,0.0112,0.0058,-0.0188,-0.0242,-0.0341,-0.0337,-0.0392,-0.0182,-0.0167,-0.0207,-0.0194,-0.0182,-0.0309,-0.0309,-0.031,-0.031,0,-0.0271,-0.0214,-0.0136,0.0008,0.0115,0.0186,0.025,0.023,0.0236,0.0252,0.0086,0.0029,-0.0159,-0.0233,-0.0322,-0.0404,-0.0324,-0.0406,-0.0399,-0.0202,-0.0179,-0.0214,-0.02,-0.0315,-0.0315,-0.0314,-0.0314,0,-0.0302,-0.0269,-0.0174,-0.0043,0.0052,0.008,0.0135,0.0111,0.0113,0.005,-0.0061,-0.0163,-0.0216,-0.0286,-0.0421,-0.0433,-0.0362,-0.0305,-0.0301,-0.0296,-0.0195,-0.0159,-0.0341,0,0,0,0,0,-0.0314,-0.0306,-0.023,-0.0102,-0.0028,0.0031,0.0055,0.0078,0.0058,-0.0036,-0.0009,-0.0158,-0.0249,-0.0342,-0.0343,-0.0436,-0.0391,-0.044,-0.0328,-0.0345,-0.0339,-0.0216,0,0,0,0,0,0,-0.0343,-0.0298,-0.0267,-0.0191,-0.0122,-0.0062,-0.0046,-0.0054,-0.0095,-0.0105,-0.0157,-0.0137,-0.0241,-0.0232,-0.034,-0.0356,-0.0278,-0.0477,-0.0476,-0.0348,-0.0343,-0.0338,-0.021,0,0,0,0,0]},{"header":{"parameterUnit":"m.s-1","parameterCategory":2,"la1":30.2991,"la2":30.254,"lo1":-89.0895,"lo2":-89.0444,"dy":0.0017,"dx":0.0017,"nx":28,"ny":28,"refTime":"2025-08-03T03:00:00:Z","depth":"4","parameterNumber":3,"parameterNumberName":"V-component_of_CURRENTS"},"data":[0,0,0,0,0,0,0,0,0,0,0,0,0,0,0,0,0,0,0,0,0,0,0,0,0,0,0,0,0,0,0,0,0,0,0,0,0,0,0,0,0,0,0,0,0,0,0,0,0,0,0,0,0,0,0,0,0,0,0.0429,0.0429,0,0.0479,0.0479,0.048,0.057,0.0572,0.0573,0.0575,0.0619,0.0619,0.0618,0,0,0,0,0,0,0,0,0,0,0,0,0,0.0377,0.0378,0.0429,0.043,0.043,0.0479,0.0479,0.048,0.0569,0.0572,0.0574,0.0576,0.062,0.0619,0.0618,0,0,0,0,0,0,0,0,0,0,0,0,0,0.041,0.0378,0.0429,0.0481,0.0487,0.0479,0.0479,0.048,0.0569,0.0572,0.0574,0.0577,0.062,0.0619,0.0618,0.056,0,0,0.0616,0.0616,0,0,0,0,0,0,0,0,0.0408,0.0411,0.0473,0.0478,0.0484,0.0521,0.0477,0.0507,0.0568,0.0537,0.0575,0.0578,0.0585,0.0587,0.0589,0.0562,0.0564,0.0616,0.0616,0.0615,0.0615,0,0,0,0,0,0,0,0.0405,0.041,0.0448,0.0473,0.048,0.0491,0.0499,0.0483,0.0544,0.054,0.0547,0.0552,0.0588,0.059,0.0591,0.0565,0.0616,0.0615,0.0615,0.0615,0.0525,0.0523,0,0,0,0,0,0,0.0399,0.0407,0.0446,0.0449,0.0452,0.049,0.0498,0.0506,0.0545,0.0554,0.055,0.0556,0.059,0.0592,0.0593,0.0574,0.0615,0.0615,0.0614,0.0527,0.0525,0.0523,0,0,0,0,0,0,0.0398,0.0402,0.0444,0.043,0.0437,0.0488,0.0496,0.0506,0.0572,0.0553,0.0562,0.0614,0.0592,0.0594,0.0603,0.0575,0.0614,0.0614,0.0529,0.0526,0.0524,0.0505,0,0,0,0,0,0,0.0396,0.0402,0.042,0.043,0.0437,0.0487,0.0493,0.0505,0.0568,0.0579,0.0609,0.0613,0.0594,0.0604,0.0603,0.0574,0.0613,0.0532,0.0528,0.0525,0.0508,0.0502,0.0496,0,0,0,0,0,0.0394,0.0408,0.0421,0.0427,0.0456,0.0488,0.0495,0.0538,0.0569,0.0607,0.0604,0.0615,0.0579,0.0603,0.0601,0.0572,0.0534,0.0529,0.0525,0.0511,0.0503,0.0496,0,0,0,0,0,0,0.0402,0.0418,0.0433,0.0454,0.0491,0.0506,0.0553,0.057,0.0599,0.0618,0.0605,0.0607,0.0593,0.0587,0.0614,0.053,0.0551,0.0547,0.0541,0.0534,0.0528,0.0543,0.0613,0,0,0,0,0,0.0406,0.0434,0.0447,0.048,0.0506,0.0539,0.0565,0.0587,0.0603,0.0625,0.0615,0.0597,0.0559,0.056,0.0529,0.0503,0.0509,0.0475,0.047,0.0465,0.0473,0.0436,0.0429,0.0508,0.0508,0.0508,0,0,0.0411,0.0437,0.0447,0.0485,0.0529,0.0539,0.0566,0.0624,0.0612,0.0617,0.0611,0.0587,0.0548,0.0501,0.0493,0.0506,0.0448,0.0459,0.0456,0.0466,0.0431,0.0424,0.0417,0.0505,0.0506,0.0506,0,0,0.0451,0.0478,0.0516,0.0536,0.0597,0.0591,0.062,0.0639,0.0647,0.0624,0.0602,0.0574,0.053,0.0481,0.0452,0.0401,0.0417,0.0385,0.0373,0.0337,0.0331,0.0326,0.0345,0.0342,0.0384,0.0383,0.0383,0,0.047,0.0501,0.0536,0.0573,0.0582,0.0618,0.0636,0.0629,0.0631,0.061,0.0627,0.0524,0.0508,0.0428,0.0401,0.039,0.0393,0.0408,0.0332,0.0327,0.0322,0.0343,0.0339,0.0382,0.0382,0.0382,0.0382,0,0.0512,0.0544,0.0581,0.0616,0.0627,0.0661,0.0638,0.0635,0.0629,0.0594,0.0537,0.0493,0.0439,0.0406,0.0391,0.0325,0.0349,0.0332,0.0359,0.0313,0.0338,0.0335,0.038,0.038,0.0381,0.0381,0,0,0.0525,0.0596,0.0606,0.0627,0.0647,0.0657,0.0628,0.0597,0.0571,0.0536,0.0483,0.0406,0.0399,0.0366,0.0334,0.0297,0.027,0.0304,0.0303,0.0341,0.0233,0.0215,0.0211,0.0239,0.0238,0.0237,0.0274,0,0.0559,0.0625,0.0628,0.0651,0.0677,0.0659,0.0618,0.0581,0.0542,0.0486,0.0432,0.0382,0.0376,0.0359,0.0315,0.0264,0.0257,0.0265,0.0257,0.0258,0.026,0.0203,0.0233,0.0272,0.0271,0.027,0.027,0,0.0581,0.0622,0.067,0.0666,0.0674,0.0668,0.0613,0.0581,0.0498,0.047,0.0414,0.0374,0.0309,0.0319,0.0247,0.0253,0.0259,0.0233,0.0233,0.0222,0.0232,0.0318,0.0264,0.0265,0.0265,0.0266,0.0266,0,0.0582,0.0629,0.0673,0.0677,0.0679,0.0676,0.0656,0.0584,0.0548,0.048,0.0442,0.0364,0.0324,0.0292,0.0259,0.0253,0.0191,0.0176,0.018,0.0182,0.0202,0.0207,0.0159,0.0159,0.0159,0.0159,0.0159,0,0.0586,0.0622,0.0688,0.071,0.071,0.0702,0.0676,0.0637,0.0575,0.049,0.0458,0.0354,0.0311,0.026,0.0253,0.0205,0.02,0.0176,0.0172,0.0195,0.0199,0.0202,0.0206,0.016,0.016,0.016,0.0159,0,0.0582,0.0643,0.0692,0.0723,0.0729,0.0731,0.0709,0.0666,0.0628,0.0517,0.0502,0.0361,0.0255,0.0251,0.0182,0.0192,0.0162,0.0171,0.0239,0.024,0.0188,0.019,0.0151,0.0151,0.015,0.015,0.0149,0,0.0571,0.0621,0.0705,0.0725,0.0752,0.0758,0.0737,0.0705,0.0628,0.0468,0.0377,0.0278,0.0181,0.0092,0.0083,0.0121,0.0126,0.018,0.014,0.0177,0.0178,0.0182,0.0186,0.0148,0.0148,0.0148,0.0148,0,0.0538,0.0619,0.0656,0.0718,0.0736,0.0714,0.0668,0.0589,0.0483,0.0494,0.0251,0.0182,0.0057,-0.0005,0.0074,0.0078,0.0164,0.0174,0.0174,0.0136,0.0173,0.0176,0.018,0.0146,0.0146,0.0146,0.0146,0,0.0511,0.0536,0.0624,0.0663,0.0695,0.0612,0.0585,0.0458,0.0391,0.0218,0.012,0.0011,-0.0027,-0.0032,-0.001,0.0043,0.0029,0.0078,0.0083,0.0086,0.005,0.0086,0.002,0,0,0,0,0,0.0467,0.0508,0.0541,0.0566,0.0603,0.0621,0.0505,0.0452,0.0336,0.0174,0.0152,0.003,-0.002,-0.0079,-0.004,-0.0035,0.0049,0.0017,0.0111,0.0134,0.0137,0.0102,0,0,0,0,0,0,0.0445,0.0496,0.0522,0.0497,0.0508,0.0495,0.0415,0.0322,0.0203,0.0115,0.0069,0.0115,0.0054,0.0001,-0.0004,0.0002,0.0076,0.0022,0.0024,0.0133,0.0135,0.0137,0.0102,0,0,0,0,0]}]]